Regional Weather Roundup
Issued by NWS

Home | Current Version | Previous Version | Text Only | Print | Product List | Glossary On
Versions: 1 2 3 4 5 6 7 8 9 10 11 12 13 14 15 16 17 18 19 20 21 22 23 24 25 26 27 28 29 30 31 32 33 34 35 36 37 38 39 40 41 42 43 44 45 46 47 48 49 50
000
ASUS43 KDMX 181006
RWRIA

WEATHER ROUNDUP FOR IOWA
NATIONAL WEATHER SERVICE DES MOINES IA
500 AM CDT WED OCT 18 2017

NOTE: "FAIR" INDICATES FEW OR NO CLOUDS BELOW 12,000 FEET WITH NO
SIGNIFICANT WEATHER AND/OR OBSTRUCTIONS TO VISIBILITY.

* - THESE STATIONS ARE NOT NWS STATIONS...THUS NOT UNDER NWS
QUALITY CONTROL.  THEY ALSO DO NOT REPORT WEATHER SUCH
AS PRECIPITATION OR FOG.

IAZ001>003-012>014-020>022-031>034-043>046-181100-
   NORTHWEST IOWA

CITY           SKY/WX    TMP DP  RH WIND       PRES   REMARKS
CARROLL *      CLEAR     55  50  82 SW17G23   29.92S
CHEROKEE *     CLEAR     43  42  99 S5        29.88S
DENISON *      CLEAR     48  45  87 S7        29.93F
LE MARS *      CLEAR     50  46  87 S6        29.85F
ORANGE CITY *  CLEAR     50  46  87 S7        29.85F
SHELDON *      CLEAR     48  45  87 S6        29.83F
SIOUX CITY     CLEAR     46  45  96 SE9       29.87F
SPENCER        CLEAR     43  40  89 SE3       29.87F
STORM LAKE *   CLEAR     48  45  87 S12       29.89S
$$

IAZ055>058-069>071-079>083-090>094-181100-
   SOUTHWEST IOWA

CITY           SKY/WX    TMP DP  RH WIND       PRES   REMARKS
ATLANTIC *     CLEAR     48  46  93 S7        29.96S
AUDUBON *      CLEAR     52  46  82 S7        29.96R
CLARINDA *       N/A     50  46  87 S7        30.01S
COUNCIL BLFS * CLEAR     54  48  82 S12       29.94S
CRESTON *      CLEAR     48  45  87 S10       30.00S
HARLAN  *      CLEAR     46  46 100 CALM      29.98S
LAMONI         CLEAR     49  45  86 S10       30.02F
RED OAK *        N/A     48  45  87 S5        29.97S
SHENANDOAH *   CLEAR     48  45  87 S5        29.98S
$$

IAZ047>049-059>061-072>074-084-181100-
   CENTRAL IOWA

CITY           SKY/WX    TMP DP  RH WIND       PRES   REMARKS
AMES           CLEAR     51  47  86 S7        29.96F
ANKENY *       CLEAR     55  46  71 S10G17    29.99S
BOONE *        CLEAR     52  46  82 S9        29.95S
CHARITON *     CLEAR     52  45  76 S12       30.01S
DES MOINES     CLEAR     55  46  71 S15       29.98S
GRINNELL*      CLEAR     51  45  80 S8        30.02S
KNOXVILLE *    CLEAR     54  45  71 S10       30.00R
MARSHALLTOWN   CLEAR     50  45  83 S7        29.98S
NEWTON *       CLEAR     52  46  82 S12       30.00S
PELLA *        CLEAR     53  45  73 SW9       30.03S
PERRY *          N/A     48  47  95 S6        29.96S
$$

IAZ004>006-015-016-023>025-035-036-181100-
   NORTH CENTRAL IOWA

CITY           SKY/WX    TMP DP  RH WIND       PRES   REMARKS
ALGONA *       CLEAR     48  46  93 S10       29.90S
CLARION *      CLEAR     48  48 100 S13       29.93S
ESTHERVILLE    CLEAR     42  42 100 S7        29.87F
FORT DODGE *   CLEAR     50  45  83 S6        29.93S
MASON CITY     CLEAR     46  43  89 S10       29.94S
FOREST CITY *    N/A     45  43  93 S7        29.92S
WEBSTER CITY * CLEAR     48  45  87 S7        29.92S
IOWA FALLS *     N/A     51  46  84 S9        29.97S
$$

IAZ007>011-017>019-026>030-037>042-050>054-066-181100-
   NORTHEAST IOWA

CITY           SKY/WX    TMP DP  RH WIND       PRES   REMARKS
CEDAR RAPIDS   CLEAR     49  44  83 S8        30.03S
CHARLES CITY * CLEAR     48  46  93 S8        29.96S
CLINTON *      CLEAR     48  42  80 S9        30.09R
DECORAH *      CLEAR     54  45  71 S10G16    29.97R
DUBUQUE        CLEAR     47  42  83 S9        30.04F
MONTICELLO *   CLEAR     50  43  76 S8        30.03F
OELWEIN *      CLEAR     48  45  87 S9        30.00S
WATERLOO       CLEAR     49  44  83 S9        29.98S
$$

IAZ064-065-067-068-078-181100-
   EAST CENTRAL IOWA

CITY           SKY/WX    TMP DP  RH WIND       PRES   REMARKS
DAVENPORT      CLEAR     51  41  68 S8        30.10S
IOWA CITY      CLEAR     50  43  77 S6        30.07S
MUSCATINE *    CLEAR     50  43  76 S7        30.08S
QUAD CITIES    CLEAR     51  40  65 S8        30.08S
$$

IAZ062-063-075>077-085>089-095>099-181100-
   SOUTHEAST IOWA

CITY           SKY/WX    TMP DP  RH WIND       PRES   REMARKS
BURLINGTON     CLEAR     50  42  74 S9        30.10S
FAIRFIELD *    CLEAR     50  43  76 S9        30.06S
FORT MADISON * CLEAR     52  43  71 S8        30.11R
KEOKUK *       CLEAR     54  41  62 S10G17    30.10S
OSKALOOSA *      N/A     48  44  85 S9        30.04S
OTTUMWA        CLEAR     51  44  77 S9        30.04S
WASHINGTON *   CLEAR     50  45  81 S10       30.07S
$$

ABBREVIATIONS USED IN REMARKS
   TC - TEMPERATURES IN CELSIUS
  WCI - WIND CHILL INDEX
   HX - HEAT INDEX
  VSB - VISIBILITY
$$





USA.gov is the U.S. government's official web portal to all federal, state and local government web resources and services.